Hourly Data Report for October 01, 2017

All times are specified in Local Standard Time (LST). Add 1 hour to adjust for Daylight Saving Time where and when it is observed.

BACCARO PT
NOVA SCOTIA

43°27'03.000" N
65°28'18.000" W
4.60 m
8200255
71920
ACP

Download Data

Hourly Data (October 2017)
Hourly Data Report for October 1, 2017
Temp Definition
°C
Dew Point Temp Definition
°C
Rel Hum Definition
%
Wind Dir Definition
10's deg

Wind Spd Definition
km/h
Visibility Definition
km
Stn Press Definition
kPa
Hmdx Definition


Wind Chill Definition


Weather Definition


TIME
00:00 6.8 4.9 88 2 15   102.41     LegendNANA
01:00 6.0 4.6 91 1 16   102.40     LegendNANA
02:00 6.1 4.6 90 1 16   102.40     LegendNANA
03:00 5.6 4.2 91 1 13   102.37     LegendNANA
04:00 5.1 3.3 89 1 14   102.39     LegendNANA
05:00 5.3 3.7 89 36 14   102.40     LegendNANA
06:00 5.3 3.6 89 36 14   102.42     LegendNANA
07:00 6.3 4.4 88 36 12   102.44     LegendNANA
08:00 9.9 6.2 78 35 10   102.47     LegendNANA
09:00 12.1 7.0 71 34 12   102.48     LegendNANA
10:00 13.6 5.0 56 32 10   102.49     LegendNANA
11:00 14.6 5.9 56 6 9   102.44     LegendNANA
12:00 15.5 6.4 54 26 5   102.41     LegendNANA
13:00 15.6 8.0 61 27 16   102.32     LegendNANA
14:00 15.5 8.4 63 26 23   102.25     LegendNANA
15:00 14.9 9.1 68 28 25   102.20     LegendNANA
16:00 14.2 8.7 69 28 27   102.16     LegendNANA
17:00 13.6 8.9 73 28 29   102.11     LegendNANA
18:00 12.5 8.2 75 29 28   102.09     LegendNANA
19:00 12.0 7.9 76 29 25   102.09     LegendNANA
20:00 12.1 8.8 80 30 26   102.06     LegendNANA
21:00 11.7 8.9 83 30 24   102.06     LegendNANA
22:00 12.3 9.5 83 31 28   102.03     LegendNANA
23:00 11.7 9.6 87 31 19   102.01     LegendNANA

Notes on Data Quality.

Legend

  • E = Estimated
  • M = Missing
  • NA = Not Available
  • ‡ = Partner data that is not subject to review by the National Climate Archives
Date modified: